FENGYUN 1C DEB, 31418

Orbit data source: Space-Track

FENGYUN 1C DEB, 31418 is space debris in SSO originally from a launch on Mon, 10 May 1999 UTC launched from the Taiyaun Space Center, China (TSC). Fengyun 1C debris stems from the Chinese weather satellite Fengyun-1C, which was intentionally destroyed by a Chinese anti-satellite missile in 2007. This event dramatically increased the amount of space debris, with thousands of trackable fragments posing hazards to satellites and human spaceflight. The Fengyun 1C debris cloud has become a focal point in discussions about space sustainability and the need for international regulations to prevent the creation of new debris.

Loading next visibility...
Identifier
31418, 1999-025BTE
Orbit
SSO
Country
Flag of CNCN / PRC
Related business
Manufacturer
Unknown
Mission
Spacecraft
Bus & Motor
Unknown
Mass
Unknown
Launch date (UTC)
1999-05-10 (27 years ago)
Launch vehicle
Unknown
Launch site
Taiyaun Space Center, China (TSC)
Object type
Payload
Rocket body
Debris
Shape & HBR
Unknown shape, 1.1 m
Radar Cross Section
Medium (>0.1 m² and <1 m²)

Expand to show TLE details & history
Last TLE update: 3 weeks ago

TLE from 3 weeks ago
0 FENGYUN 1C DEB
1 31418U 99025BTE 26215.65026225  .00013566  00000-0  26410-2 0  9992
2 31418  99.1477 154.7028 0026181 224.2197 135.6910 14.62982986689629
Epoch: 2026-08-03T15:36Z
TLE epoch observation values (Epoch: 2026-08-03T15:36:22.658Z)
Latitude
0.00002°
Longitude
-31.62194°
Altitude
699.773 km
Speed
7.499 km/s
True Right ascension
10h 18m 48s
True Declination
0° 00' 00"
Sunlit
Object was in daylight at epoch
Visualization orbit readout
Latitude
Unknown
Longitude
Unknown
Altitude
Unknown
Speed
Unknown
Apparent Right ascension
Unknown
Apparent Declination
Unknown
Sunlit
N/A
Visualization observer readout
Local Sidereal Time
02:59:19
Azimuth
Unknown
Elevation
Unknown
Doppler factor
Unknown
Orbital elements
Apogee altitude
699.163 km
Perigee altitude
662.201 km
Semi-major axis
7,058.819 km
Eccentricity
0.00262
Inclination
99.1477°
RAAN
154.7028°
Arg. of periapsis
224.2197°
True anomaly
135.90008°
Mean anomaly
135.691°
Eccentric anomaly
135.79559°
Mean motion
3.6597 °/min
Orbital period
98.37 mins
BSTAR
0.002641
Loading maneuver chart data...
Computing Atmospheric mass density...

Documentation

Showing up to 5 results
|